SCP
0 0 0 0 1 0 0 0 0 0 0 0 0 0 0 0 0 0 0 0 0 0 0 0 0 0 0 0 0 0 0 0 0 0 0 0 0 0 0 0 0 0 0
1 0 0 0 0 0 0 0 0 0 0 0 0 0 0 0 0 0 0 0 0 0 0 0 0 0 0 0 0 0 0 0 0 0 0 0 0 0 0 0 0 0 0
1 1 0 0 0 0 0 0 0 0 0 0 0 0 0 0 0 0 0 0 0 0 0 0 0 0 0 0 0 0 0 0 0 0 0 0 0 0 0 0 0 0 0
1 1 0 0 0 0 0 0 0 0 0 0 0 0 0 0 0 0 0 0 0 0 0 0 0 0 0 0 0 0 0 0 0 0 0 0 0 0 0 0 0 0 0
2 1 1 0 0 0 0 0 0 0 0 0 0 0 0 0 0 0 0 0 0 0 0 0 0 0 0 0 0 0 0 0 0 0 0 0 0 0 0 0 0 0 0
1 1 1 1 0 0 0 0 0 0 0 0 0 0 0 0 0 0 0 0 0 0 0 0 0 0 0 0 0 0 0 0 0 0 0 0 0 0 0 0 0 0 0
2 1 1 1 1 0 0 0 0 0 0 0 0 0 0 0 0 0 0 0 0 0 0 0 0 0 0 0 0 0 0 0 0 0 0 0 0 0 0 0 0 0 0
2 2 1 1 1 0 0 0 0 0 0 0 0 0 0 0 0 0 0 0 0 0 0 0 0 0 0 0 0 0 0 0 0 0 0 0 0 0 0 0 0 0 0
2 2 1 1 1 0 0 0 0 0 0 0 0 0 0 0 0 0 0 0 0 0 0 0 0 0 0 0 0 0 0 0 0 0 0 0 0 0 0 0 0 0 0
2 2 1 1 1 0 0 0 0 0 0 0 0 0 0 0 0 0 0 0 0 0 0 0 0 0 0 0 0 0 0 0 0 0 0 0 0 0 0 0 0 0 0
2 2 1 1 1 0 0 0 0 0 0 0 0 0 0 0 0 0 0 0 0 0 0 0 0 0 0 0 0 0 0 0 0 0 0 0 0 0 0 0 0 0 0
1 1 1 1 1 0 0 0 0 0 0 0 0 0 0 0 0 0 1 0 0 0 0 0 0 0 0 0 0 0 0 0 0 0 0 0 0 0 0 0 0 0 0
1 1 1 1 1 0 0 0 0 0 0 0 0 0 0 0 0 1 1 1 0 0 0 0 0 0 0 0 0 0 0 0 0 0 0 0 0 0 0 0 0 0 0
1 1 1 1 1 0 0 0 0 0 0 0 0 0 0 0 0 0 1 0 0 0 0 0 0 0 0 0 0 0 0 0 0 0 0 0 0 0 0 0 0 0 0
1 1 1 1 1 0 0 0 0 0 0 0 0 0 0 0 0 0 0 0 0 0 0 0 0 0 0 0 0 0 0 0 0 0 0 0 0 0 0 0 0 0 0
1 1 1 1 1 0 0 0 0 0 0 0 0 0 0 0 0 0 0 0 0 0 0 0 0 0 0 0 0 0 0 0 0 0 0 0 0 0 0 0 0 0 0
0 0 1 1 0 0 0 0 0 0 0 0 0 0 0 0 0 0 0 0 0 0 0 0 0 0 0 0 0 0 0 0 0 0 0 0 0 0 0 0 0 0 0
0 0 0 0 0 0 0 0 0 0 0 0 0 0 0 0 0 0 0 0 0 0 0 0 0 0 0 0 0 0 0 0 0 0 0 0 0 0 0 0 0 0 0
0 0 0 0 0 0 0 0 0 0 0 0 0 0 0 0 0 0 0 0 0 0 0 0 0 0 0 0 0 0 0 0 0 0 0 0 0 0 0 0 0 0 0
0 0 0 0 0 0 0 0 0 0 0 0 0 0 0 0 0 0 0 0 0 0 0 0 0 0 0 0 0 0 0 0 0 0 0 0 0 0 0 0 0 0 0
0 0 0 0 0 0 0 0 0 0 0 0 0 0 0 0 0 0 0 0 0 0 0 0 0 0 0 0 0 0 0 0 0 0 0 0 0 0 0 0 0 0 0
0 0 0 0 0 0 0 0 0 0 0 0 0 0 0 0 0 0 0 0 0 0 0 0 0 0 0 0 0 0 0 0 0 0 0 0 0 0 0 0 0 0 0
0 0 0 0 0 0 0 0 0 0 0 0 0 0 0 0 0 0 0 0 0 0 0 0 0 0 0 0 0 0 0 0 0 0 0 0 0 0 0 0 0 0 0
0 0 0 0 0 0 0 0 0 0 0 0 0 0 0 0 0 0 0 0 0 0 0 0 0 0 0 0 0 0 0 0 0 0 0 0 0 0 0 0 0 0 0
0 0 0 0 0 0 0 0 0 0 0 0 0 0 0 0 0 0 0 0 0 0 0 0 0 0 0 0 0 0 0 0 0 0 0 0 0 0 0 0 0 0 0
0 0 0 0 0 0 0 0 0 0 0 0 0 0 0 0 0 0 0 0 0 0 0 0 0 0 0 0 0 0 0 0 0 0 0 0 0 0 0 0 0 0 0
Wind_Speed
5 4 4 4 4 4 4 3 3 3 3 2 2 2 1 1 1 1 2 3 3 3 4 3 3 3 3 3 3 3 4 2 2 4 4 4 4 4 3 2 2 2 2
4 4 4 4 5 4 4 4 3 3 3 2 2 1 1 1 0 1 2 2 3 3 4 3 3 3 3 3 3 3 2 1 1 3 3 2 4 4 4 3 2 2 2
9 7 5 5 6 5 5 5 4 4 3 3 2 2 2 2 2 2 1 1 2 3 3 4 3 3 3 3 2 2 3 2 1 1 3 3 1 1 3 3 3 2 2
8 7 7 6 7 6 4 5 4 4 4 4 4 3 2 2 1 1 0 1 2 2 2 3 3 3 3 3 2 2 2 3 1 1 1 2 3 3 1 3 3 3 3
9 9 8 8 6 5 5 5 4 4 4 4 4 4 2 1 1 1 2 1 1 1 2 3 3 4 3 2 2 2 2 2 2 1 1 2 2 2 3 1 2 3 3
7 7 6 6 5 5 4 5 5 4 4 4 4 4 4 3 2 1 1 1 1 1 2 3 3 3 3 3 2 2 3 2 2 2 2 2 2 2 3 2 1 1 2
7 7 7 6 6 6 6 5 5 4 4 4 4 4 5 4 4 3 2 2 1 0 1 2 2 2 2 3 3 3 2 2 2 2 2 1 1 2 3 3 2 1 1
6 7 8 8 7 7 6 5 5 4 4 4 4 3 4 3 2 3 3 3 2 2 2 2 2 2 3 3 3 2 2 2 2 3 2 2 1 1 2 3 3 2 1
6 7 7 7 6 6 6 6 6 5 4 4 4 3 3 3 3 3 3 2 2 2 3 3 3 3 3 3 3 2 2 3 2 2 2 2 1 1 1 2 3 4 2
5 5 6 6 6 6 5 5 5 5 5 5 4 4 3 3 3 3 3 3 3 2 3 3 3 3 3 3 3 2 2 3 2 2 3 2 1 2 2 2 2 2 4
6 6 5 5 5 5 4 4 4 4 4 4 4 3 3 3 3 3 3 3 3 3 4 4 3 3 3 3 3 2 2 2 2 2 2 2 2 2 1 2 2 2 3
6 5 5 4 4 4 4 5 4 4 4 4 4 3 3 3 3 2 2 3 3 3 4 4 3 3 3 3 4 3 2 2 2 1 2 1 2 2 1 1 2 1 2
4 4 4 4 4 4 4 4 4 4 4 4 4 3 3 3 3 3 3 3 3 3 3 3 3 3 3 3 3 3 3 2 2 2 2 2 2 1 1 1 1 1 1
5 4 4 3 3 4 4 4 4 4 4 4 4 4 4 4 3 3 2 3 3 3 3 3 3 3 3 3 3 3 3 2 2 1 2 2 3 3 3 2 2 2 2
4 5 5 4 3 2 3 4 4 3 4 4 5 5 4 3 3 3 2 3 3 3 3 3 3 3 3 2 3 3 3 2 1 1 0 1 2 3 3 2 3 3 2
6 5 5 5 4 4 3 3 4 3 4 5 5 4 4 4 3 3 3 3 3 3 3 3 3 3 2 3 5 5 3 3 2 1 1 1 1 2 2 3 4 5 4
5 5 4 5 5 4 4 4 4 3 4 4 4 4 4 4 4 4 4 4 3 3 3 3 3 2 2 4 6 6 4 3 3 2 1 1 1 2 2 2 3 1 2
4 4 3 3 3 3 3 3 2 4 4 4 4 4 4 4 3 3 4 3 3 3 3 3 3 2 2 4 6 6 3 3 2 2 2 2 1 1 2 2 2 2 1
5 5 5 4 3 3 3 3 2 3 4 4 4 4 5 5 5 5 4 3 3 2 2 3 3 3 2 4 5 5 3 2 1 1 1 2 1 1 4 4 2 1 2
3 3 3 2 2 2 3 4 3 3 4 5 4 4 4 5 6 6 4 2 3 3 3 2 3 3 2 3 5 6 3 2 1 1 1 2 2 2 4 3 3 1 1
3 3 3 3 3 3 4 4 3 3 5 4 3 3 3 5 5 5 3 3 3 3 3 2 2 2 2 2 4 6 3 3 2 1 1 1 2 2 3 3 2 2 1
2 3 3 2 2 3 4 3 3 3 2 3 4 3 3 3 4 4 4 4 4 4 3 2 1 1 1 2 3 5 5 4 3 2 1 1 2 1 2 2 1 1 2
3 3 3 2 1 2 4 4 3 2 2 3 4 3 3 2 4 5 4 3 4 3 3 3 2 2 1 1 3 4 5 5 3 2 2 2 2 1 0 0 1 2 2
3 3 3 2 1 1 2 3 2 3 3 3 3 3 3 2 2 3 3 4 4 4 3 3 3 2 1 1 2 2 2 3 2 1 1 1 1 1 0 1 0 0 1
2 3 4 3 2 2 1 1 2 4 3 3 3 3 3 3 3 2 2 4 4 5 5 4 4 4 4 4 5 4 3 2 3 3 2 1 1 1 1 1 1 0 0
2 2 3 3 2 2 1 1 2 3 4 3 3 3 3 3 3 3 1 1 1 2 4 4 4 4 4 4 4 4 4 5 6 5 2 1 1 1 1 1 1 1 1
Wind_Direction
200 178 168 152 143 140 141 143 131 130 116 100 96 94 78 38 38 45 75 86 90 90 96 103 98 95 97 102 105 99 82 67 80 78 52 29 36 46 44 48 63 66 57
176 173 170 154 153 153 150 144 145 142 135 127 132 142 140 109 55 29 56 82 94 96 109 109 109 107 102 95 95 100 94 73 82 104 94 45 14 14 27 29 45 51 51
179 178 171 163 155 159 166 162 163 154 145 127 102 79 60 46 34 27 20 24 90 104 109 111 116 118 116 124 127 129 126 123 43 96 130 131 166 344 360 11 24 35 48
178 175 171 166 168 171 167 157 158 151 145 132 127 127 126 132 190 199 76 27 72 99 105 110 115 119 121 132 143 134 131 124 113 47 69 129 143 134 50 352 5 25 40
178 175 176 174 172 167 164 158 152 150 151 144 139 134 134 156 153 110 84 58 40 78 107 109 110 113 123 134 121 110 108 117 130 132 115 89 79 100 126 121 344 8 8
174 173 172 163 164 162 158 156 154 156 157 153 149 153 159 159 137 120 117 74 40 45 87 113 117 121 129 132 123 112 108 105 108 109 116 134 136 144 133 140 142 15 343
168 167 168 170 169 166 167 166 160 164 169 166 170 174 175 172 171 175 171 162 134 127 157 127 125 123 131 125 118 108 99 106 110 115 114 117 132 144 135 126 132 91 348
173 176 176 174 173 172 171 172 172 174 176 174 182 182 176 175 184 186 178 179 182 191 177 146 136 126 123 114 109 105 100 101 103 106 110 107 102 120 136 143 135 103 24
176 176 177 175 173 171 176 179 176 174 178 175 180 185 180 178 187 190 181 183 191 187 165 145 138 127 119 112 111 98 97 102 100 108 104 99 96 101 106 123 138 139 136
171 172 172 175 177 177 177 175 173 173 176 173 185 187 186 183 179 169 174 181 181 161 145 146 149 140 130 122 112 106 107 101 97 103 101 95 92 85 88 105 110 124 137
170 173 175 173 170 167 167 173 178 168 171 179 183 174 176 175 165 167 180 178 166 162 162 163 159 153 149 140 125 121 119 113 90 87 105 106 104 97 90 93 97 103 118
165 165 162 156 158 164 171 180 182 177 180 175 165 162 161 158 159 167 176 165 159 168 168 161 159 159 155 153 150 153 147 144 138 122 111 108 104 93 90 99 103 118 131
147 146 148 157 170 176 177 178 180 181 178 164 158 157 160 163 171 179 171 155 152 162 162 155 161 160 156 160 164 157 154 160 170 167 159 162 131 124 127 127 123 125 118
153 151 159 172 181 185 183 178 185 181 173 163 161 169 181 181 182 176 163 158 153 147 149 150 156 153 148 150 151 146 143 144 153 164 172 175 163 170 167 153 151 130 113
165 173 178 183 183 184 190 186 188 182 171 165 174 186 189 179 171 163 162 155 147 148 150 136 131 132 136 149 150 148 137 132 115 83 85 180 169 179 168 154 159 142 131
185 186 184 184 190 194 193 189 188 188 170 167 182 184 178 173 172 169 157 145 144 139 133 140 140 139 146 155 156 146 143 139 131 116 46 28 89 98 116 126 151 158 157
186 179 186 193 197 201 191 192 191 179 169 174 178 176 174 174 178 168 154 158 161 145 139 154 150 153 166 154 149 145 138 134 133 131 119 79 67 82 84 78 68 89 171
177 181 186 185 189 186 186 184 168 164 168 174 180 176 172 175 166 157 163 169 157 155 160 162 158 153 165 152 147 144 129 123 131 140 143 129 93 102 107 99 68 33 2
179 183 183 176 170 169 168 152 150 157 160 172 183 186 178 174 169 175 179 172 157 161 165 160 160 162 182 156 147 134 121 119 128 127 115 131 135 116 116 107 96 36 348
168 163 162 143 152 179 155 142 155 167 187 194 194 186 176 175 179 181 176 163 156 165 162 159 168 169 178 168 156 139 130 133 134 85 108 142 139 136 137 135 138 153 285
163 149 143 154 182 178 153 150 166 200 211 196 179 171 168 170 172 170 160 150 147 142 150 154 156 167 179 174 162 153 146 158 160 161 188 220 163 145 157 157 167 202 194
140 143 145 168 176 162 156 164 198 216 193 170 166 172 170 168 157 156 157 153 151 150 159 155 172 225 211 183 174 167 162 152 154 183 202 206 172 160 154 162 189 153 102
158 155 154 157 156 167 167 182 215 185 148 153 167 173 164 159 157 160 161 156 158 163 177 180 192 224 234 225 195 180 175 171 161 172 175 177 169 146 104 2 138 126 122
170 160 145 147 182 205 188 192 185 163 142 153 167 168 158 153 145 159 162 164 173 179 184 189 199 211 217 226 213 196 184 177 169 156 134 118 100 71 13 26 56 143 170
183 165 165 176 202 214 212 187 162 154 150 157 162 163 161 158 153 148 166 176 188 186 186 197 191 190 215 223 202 183 181 178 173 134 105 89 70 27 341 334 315 276 189
171 169 173 179 200 188 182 183 164 161 155 159 171 171 160 152 152 147 113 65 142 177 187 188 187 202 206 190 183 184 180 167 148 130 143 176 200 225 236 249 273 274 250